TimeEST,TemperatureF,Dew PointF,Humidity,Sea Level PressureIn,VisibilityMPH,Wind Direction,Wind SpeedMPH,Gust SpeedMPH,PrecipitationIn,Events,Conditions,WindDirDegrees,DateUTC
12:53 AM,34.0,26.1,73,30.06,10.0,WSW,6.9,-,N/A,,Overcast,250,2013-01-17 05:53:00
1:53 AM,34.0,26.1,73,30.07,10.0,WSW,4.6,-,N/A,,Overcast,240,2013-01-17 06:53:00
2:53 AM,34.0,26.1,73,30.09,10.0,WSW,5.8,-,N/A,,Overcast,250,2013-01-17 07:53:00
3:53 AM,34.0,27.0,75,30.11,10.0,West,3.5,-,N/A,,Overcast,260,2013-01-17 08:53:00
4:30 AM,33.8,26.6,75,30.08,10.0,Variable,4.6,-,N/A,,Overcast,0,2013-01-17 09:30:00
4:53 AM,34.0,27.0,75,30.11,10.0,West,3.5,-,N/A,,Overcast,260,2013-01-17 09:53:00
5:53 AM,30.9,26.1,82,30.13,10.0,Calm,Calm,-,N/A,,Scattered Clouds,0,2013-01-17 10:53:00
7:53 AM,30.0,25.0,82,30.17,7.0,Calm,Calm,-,N/A,,Clear,0,2013-01-17 12:53:00
8:53 AM,28.0,24.1,85,30.19,4.0,WSW,3.5,-,N/A,,Clear,240,2013-01-17 13:53:00
9:53 AM,30.0,27.0,88,30.22,5.0,South,3.5,-,N/A,,Clear,190,2013-01-17 14:53:00
10:53 AM,36.0,28.9,76,30.23,9.0,Variable,3.5,-,N/A,,Clear,0,2013-01-17 15:53:00
11:14 AM,35.6,26.6,70,30.21,10.0,WNW,3.5,-,N/A,,Mostly Cloudy,300,2013-01-17 16:14:00
11:53 AM,37.9,27.0,65,30.22,10.0,North,4.6,-,N/A,,Overcast,10,2013-01-17 16:53:00
12:19 PM,39.2,24.8,56,30.19,10.0,NW,4.6,-,N/A,,Scattered Clouds,310,2013-01-17 17:19:00
12:53 PM,39.9,24.1,53,30.19,10.0,Variable,5.8,-,N/A,,Partly Cloudy,0,2013-01-17 17:53:00
1:53 PM,41.0,23.0,49,30.17,10.0,WNW,8.1,-,N/A,,Clear,300,2013-01-17 18:53:00
2:53 PM,39.9,21.0,47,30.16,10.0,Variable,6.9,-,N/A,,Clear,0,2013-01-17 19:53:00
3:53 PM,37.9,19.9,48,30.18,10.0,NW,15.0,24.2,N/A,,Clear,320,2013-01-17 20:53:00
4:53 PM,34.0,19.0,54,30.21,10.0,WNW,12.7,19.6,N/A,,Clear,300,2013-01-17 21:53:00
5:53 PM,30.0,17.1,59,30.25,10.0,NW,15.0,23.0,N/A,,Clear,310,2013-01-17 22:53:00
6:53 PM,27.0,15.1,61,30.30,10.0,NW,17.3,24.2,N/A,,Clear,310,2013-01-17 23:53:00
7:53 PM,25.0,14.0,63,30.35,10.0,NW,15.0,23.0,N/A,,Clear,320,2013-01-18 00:53:00
8:53 PM,23.0,12.0,63,30.36,10.0,NW,8.1,-,N/A,,Partly Cloudy,320,2013-01-18 01:53:00
9:53 PM,21.9,10.0,60,30.38,10.0,NW,6.9,-,N/A,,Clear,310,2013-01-18 02:53:00
10:53 PM,21.0,12.0,68,30.37,10.0,Variable,3.5,-,N/A,,Clear,0,2013-01-18 03:53:00
11:53 PM,21.9,14.0,72,30.38,10.0,WSW,4.6,-,N/A,,Overcast,240,2013-01-18 04:53:00